Location: Table Mountain
(47.2500°N, 120.5778°W)
Time: 04:13:49
(UTC-07:00)

Vanguard 1 - Visible Passes

Search period start: 21 July 2018 00:00
Search period end: 31 July 2018 00:00
Orbit: 650 x 3833 km, 34.2° (Epoch: 21 July)

Date Brightness Start Highest point End Pass type
(mag) Time Alt. Az. Time Alt. Az. Time Alt. Az.
21 Jul 11.9 23:20:23 10° SSW 23:20:32 10° SSW 23:20:32 10° SSW visible
22 Jul 11.8 21:22:52 10° S 21:24:51 11° SSE 21:26:38 10° SSE visible
22 Jul 11.9 23:40:38 10° SW 23:40:57 11° SW 23:40:57 11° SW visible
23 Jul 11.5 21:41:29 10° SSW 21:45:39 15° SSE 21:48:30 11° SE visible
24 Jul 12.0 00:01:11 10° SW 00:01:16 10° SW 00:01:16 10° SW visible
24 Jul 11.3 22:01:13 10° SSW 22:06:27 18° S 22:08:43 15° SE visible
25 Jul 11.1 22:21:26 10° SW 22:27:14 21° S 22:28:50 19° SSE visible
26 Jul 11.0 22:41:57 10° SW 22:47:58 24° S 22:48:52 23° SSE visible
27 Jul 11.0 23:02:40 10° SW 23:08:41 25° S 23:08:50 25° S visible
28 Jul 11.1 23:23:33 10° WSW 23:28:44 24° SSW 23:28:44 24° SSW visible
29 Jul 11.6 21:21:43 10° SW 21:30:20 28° S 21:35:52 10° ESE visible
29 Jul 11.4 23:44:33 10° WSW 23:48:36 21° SW 23:48:36 21° SW visible
30 Jul 11.4 21:42:24 10° WSW 21:51:08 30° S 21:55:42 15° SE visible
